• In Hungary
  • List of Countries
  • For 7 days
  • Water Temperature
  • Satellite Maps
  • Weather Map
  • News
  • Weather Widgets
  • user-avatar
    Login

    Hourly Weather Charbielin

    Today, 23 September, Sunday

    Time Temperature Precipitation Wind Pressure Humidity
    00:00 +12°C° 0.1 mm 3 mps 736 mmHg 66%
    01:00 +12°C° 0 mm 5 mps 736 mmHg 63%
    02:00 +12°C° 0 mm 4 mps 736 mmHg 65%
    03:00 +12°C° 0 mm 4 mps 736 mmHg 68%
    04:00 +11°C° 0 mm 3 mps 736 mmHg 70%
    05:00 +11°C° 0 mm 4 mps 735 mmHg 71%
    06:00 +11°C° 0 mm 4 mps 735 mmHg 71%
    07:00 +12°C° 0 mm 4 mps 735 mmHg 71%
    08:00 +13°C° 0 mm 4 mps 735 mmHg 67%
    09:00 +14°C° 0 mm 4 mps 735 mmHg 63%
    10:00 +15°C° 0 mm 5 mps 735 mmHg 59%
    11:00 +15°C° 0 mm 5 mps 734 mmHg 61%
    12:00 +14°C° 0 mm 5 mps 734 mmHg 63%
    13:00 +14°C° 0 mm 5 mps 733 mmHg 66%
    14:00 +14°C° 0.2 mm 5 mps 732 mmHg 70%
    15:00 +13°C° 0.2 mm 5 mps 731 mmHg 75%
    16:00 +13°C° 0.2 mm 5 mps 730 mmHg 80%
    17:00 +12°C° 0.1 mm 7 mps 728 mmHg 79%
    18:00 +13°C° 0.1 mm 8 mps 727 mmHg 78%
    19:00 +13°C° 0.1 mm 9 mps 725 mmHg 78%
    20:00 +15°C° 1.2 mm 8 mps 725 mmHg 80%
    21:00 +15°C° 1.2 mm 8 mps 724 mmHg 82%
    22:00 +15°C° 1.2 mm 7 mps 724 mmHg 85%
    23:00 +14°C° 2.2 mm 7 mps 725 mmHg 86%

    Tomorrow, 24 September, Monday

    Time Temperature Precipitation Wind Pressure Humidity
    00:00 +11°C° 2.2 mm 8 mps 726 mmHg 87%
    01:00 +10°C° 2.2 mm 8 mps 727 mmHg 88%
    02:00 +9°C° 0.5 mm 8 mps 729 mmHg 87%
    03:00 +7°C° 0.5 mm 8 mps 730 mmHg 85%
    04:00 +6°C° 0.5 mm 7 mps 732 mmHg 84%
    05:00 +6°C° 0 mm 8 mps 733 mmHg 83%
    06:00 +6°C° 0 mm 8 mps 734 mmHg 82%
    07:00 +6°C° 0 mm 8 mps 735 mmHg 81%
    08:00 +7°C° 0.1 mm 8 mps 736 mmHg 77%
    09:00 +7°C° 0.1 mm 8 mps 737 mmHg 73%
    10:00 +7°C° 0.1 mm 9 mps 738 mmHg 69%
    11:00 +8°C° 0.2 mm 9 mps 738 mmHg 65%
    12:00 +8°C° 0.2 mm 9 mps 739 mmHg 61%
    13:00 +10°C° 0.2 mm 9 mps 739 mmHg 58%
    14:00 +10°C° 0.1 mm 9 mps 739 mmHg 57%
    15:00 +10°C° 0.1 mm 9 mps 739 mmHg 56%
    16:00 +9°C° 0.1 mm 8 mps 739 mmHg 55%
    17:00 +8°C° 0 mm 7 mps 740 mmHg 58%
    18:00 +7°C° 0 mm 6 mps 740 mmHg 61%
    19:00 +6°C° 0 mm 5 mps 741 mmHg 64%
    20:00 +6°C° 0 mm 5 mps 741 mmHg 65%
    21:00 +5°C° 0 mm 6 mps 742 mmHg 66%
    22:00 +4°C° 0 mm 6 mps 742 mmHg 67%
    23:00 +5°C° 0.1 mm 5 mps 743 mmHg 69%

    Day after tomorrow, 25 September, Tuesday

    Time Temperature Precipitation Wind Pressure Humidity
    00:00 +5°C° 0.1 mm 5 mps 743 mmHg 72%
    01:00 +5°C° 0.1 mm 5 mps 744 mmHg 74%
    02:00 +3°C° 0 mm 5 mps 744 mmHg 76%
    03:00 +4°C° 0 mm 4 mps 744 mmHg 77%
    04:00 +3°C° 0 mm 4 mps 745 mmHg 79%
    05:00 +4°C° 0 mm 4 mps 745 mmHg 78%
    06:00 +4°C° 0 mm 4 mps 746 mmHg 78%
    07:00 +4°C° 0 mm 4 mps 746 mmHg 78%
    08:00 +5°C° 0 mm 4 mps 747 mmHg 73%
    09:00 +7°C° 0 mm 5 mps 747 mmHg 68%
    10:00 +8°C° 0 mm 5 mps 748 mmHg 62%
    11:00 +9°C° 0.1 mm 5 mps 748 mmHg 59%
    12:00 +9°C° 0.1 mm 5 mps 748 mmHg 56%
    13:00 +10°C° 0.1 mm 5 mps 748 mmHg 53%
    14:00 +10°C° 0 mm 5 mps 748 mmHg 53%
    15:00 +11°C° 0 mm 4 mps 748 mmHg 53%
    16:00 +11°C° 0 mm 4 mps 748 mmHg 53%
    17:00 +9°C° 0 mm 3 mps 748 mmHg 59%
    18:00 +8°C° 0 mm 3 mps 748 mmHg 64%
    19:00 +6°C° 0 mm 2 mps 749 mmHg 70%
    20:00 +6°C° 0 mm 2 mps 749 mmHg 71%
    21:00 +6°C° 0 mm 2 mps 749 mmHg 72%
    22:00 +6°C° 0 mm 1 mps 749 mmHg 73%
    23:00 +6°C° 0 mm 1 mps 749 mmHg 73%

    26 September, Wednesday

    Time Temperature Precipitation Wind Pressure Humidity
    00:00 +6°C° 0 mm 1 mps 749 mmHg 73%
    01:00 +5°C° 0 mm 1 mps 749 mmHg 73%
    02:00 +5°C° 0 mm 1 mps 749 mmHg 74%
    03:00 +5°C° 0 mm 1 mps 749 mmHg 74%
    04:00 +5°C° 0 mm 1 mps 749 mmHg 75%
    05:00 +5°C° 0 mm 1 mps 749 mmHg 74%
    06:00 +5°C° 0 mm 2 mps 749 mmHg 72%
    07:00 +5°C° 0 mm 2 mps 749 mmHg 71%
    08:00 +7°C° 0 mm 2 mps 749 mmHg 64%
    09:00 +9°C° 0 mm 3 mps 749 mmHg 57%
    10:00 +11°C° 0 mm 3 mps 749 mmHg 50%
    11:00 +12°C° 0 mm 4 mps 748 mmHg 47%
    12:00 +13°C° 0 mm 4 mps 747 mmHg 45%
    13:00 +14°C° 0 mm 4 mps 747 mmHg 42%
    14:00 +14°C° 0 mm 4 mps 746 mmHg 44%
    15:00 +14°C° 0 mm 4 mps 746 mmHg 47%
    16:00 +14°C° 0 mm 4 mps 745 mmHg 49%
    17:00 +13°C° 0 mm 4 mps 745 mmHg 51%
    18:00 +11°C° 0 mm 4 mps 745 mmHg 53%
    19:00 +10°C° 0 mm 3 mps 745 mmHg 56%
    20:00 +10°C° 0 mm 4 mps 745 mmHg 56%
    21:00 +10°C° 0 mm 4 mps 745 mmHg 55%
    22:00 +10°C° 0 mm 4 mps 744 mmHg 55%
    23:00 +8°C° 0 mm 4 mps 744 mmHg 56%

    27 September, Thursday

    Time Temperature Precipitation Wind Pressure Humidity
    00:00 +9°C° 0 mm 3 mps 744 mmHg 56%
    01:00 +9°C° 0 mm 3 mps 744 mmHg 57%
    02:00 +9°C° 0 mm 3 mps 744 mmHg 57%
    03:00 +9°C° 0 mm 3 mps 743 mmHg 57%
    04:00 +9°C° 0 mm 3 mps 743 mmHg 56%
    05:00 +10°C° 0 mm 3 mps 743 mmHg 56%
    06:00 +10°C° 0 mm 3 mps 743 mmHg 57%
    07:00 +11°C° 0 mm 3 mps 743 mmHg 57%
    08:00 +13°C° 0 mm 3 mps 743 mmHg 55%
    09:00 +16°C° 0 mm 3 mps 743 mmHg 52%
    10:00 +18°C° 0 mm 4 mps 743 mmHg 50%
    11:00 +19°C° 0 mm 4 mps 743 mmHg 50%
    12:00 +20°C° 0 mm 4 mps 743 mmHg 51%
    13:00 +21°C° 0 mm 4 mps 742 mmHg 51%
    14:00 +21°C° 0 mm 3 mps 742 mmHg 53%
    15:00 +21°C° 0 mm 3 mps 742 mmHg 55%
    16:00 +21°C° 0 mm 2 mps 741 mmHg 57%
    17:00 +19°C° 0 mm 2 mps 741 mmHg 61%
    18:00 +17°C° 0 mm 2 mps 741 mmHg 65%
    19:00 +15°C° 0 mm 2 mps 741 mmHg 70%
    20:00 +15°C° 0 mm 2 mps 741 mmHg 70%
    21:00 +14°C° 0 mm 2 mps 740 mmHg 69%
    22:00 +14°C° 0 mm 2 mps 740 mmHg 69%
    23:00 +14°C° 0 mm 2 mps 740 mmHg 70%

    28 September, Friday

    Time Temperature Precipitation Wind Pressure Humidity
    00:00 +14°C° 0 mm 2 mps 739 mmHg 70%
    01:00 +14°C° 0 mm 2 mps 739 mmHg 71%
    02:00 +13°C° 0 mm 2 mps 739 mmHg 70%
    03:00 +13°C° 0 mm 2 mps 738 mmHg 70%
    04:00 +13°C° 0 mm 2 mps 738 mmHg 70%
    05:00 +13°C° 0 mm 2 mps 738 mmHg 68%
    06:00 +13°C° 0 mm 2 mps 738 mmHg 67%
    07:00 +14°C° 0 mm 2 mps 738 mmHg 65%
    08:00 +15°C° 0 mm 2 mps 738 mmHg 59%
    09:00 +17°C° 0 mm 2 mps 738 mmHg 54%
    10:00 +19°C° 0 mm 2 mps 738 mmHg 48%
    11:00 +20°C° 0 mm 2 mps 737 mmHg 46%
    12:00 +21°C° 0 mm 2 mps 737 mmHg 44%
    13:00 +23°C° 0 mm 2 mps 737 mmHg 42%
    14:00 +21°C° 0 mm 2 mps 737 mmHg 45%
    15:00 +21°C° 0 mm 2 mps 737 mmHg 47%
    16:00 +21°C° 0 mm 2 mps 736 mmHg 50%
    17:00 +19°C° 0 mm 2 mps 737 mmHg 57%
    18:00 +17°C° 0 mm 2 mps 737 mmHg 64%
    19:00 +15°C° 0 mm 2 mps 737 mmHg 72%
    20:00 +14°C° 0 mm 2 mps 737 mmHg 77%
    21:00 +13°C° 0 mm 2 mps 737 mmHg 82%
    22:00 +13°C° 0 mm 1 mps 737 mmHg 87%
    23:00 +12°C° 0 mm 2 mps 737 mmHg 89%
    Show more